Date String (YYYY-MM-DD hh:mm:ss) UTC,Instrument flags,Ambient pressure (hPa),Sample flow (lpm),Bypass flow (lpm),Sample temperature (°C),Ambient temperature (°C),ASC tube jacket temperature (°C),LED temperature (°C),Box temperature (°C),Sample RH (%),Span deviation,Mass concentration (μg/m³),Mass concentration (μg/m³),Mass concentration (μg/m³)
DateTimeUTC,F1_M11,P_M11,Q1_M11,Q2_M11,T1_M11,T2_M11,T3_M11,T4_M11,T5_M11,U1_M11,ZSPAN_M11,X0_M11,X2_M11,X1_M11
2022-04-27 22:00:00,,0820.6,4.99,0.00,29.0,28.3,00.0,37.9,30.8,11.7,0003.6,0029.94,0011.02,0006.03
2022-04-27 22:01:00,,0820.6,5.01,0.00,29.0,28.3,00.0,37.9,30.8,12.1,0003.6,0029.74,0011.19,0006.05
2022-04-27 22:02:00,,0820.6,4.99,0.00,29.0,28.4,00.0,37.9,30.8,12.3,0003.8,0030.04,0011.31,0006.07
2022-04-27 22:03:00,,0820.6,5.02,0.00,29.0,28.4,00.0,37.9,30.8,12.2,0005.0,0031.07,0011.34,0006.05
2022-04-27 22:04:00,,0820.5,4.99,0.00,29.0,28.4,00.0,37.9,30.9,12.0,0005.7,0031.00,0011.20,0006.03
2022-04-27 22:05:00,,0820.5,5.00,0.00,29.1,28.5,00.0,37.9,30.9,11.8,0005.0,0031.71,0011.33,0006.02
2022-04-27 22:06:00,,0820.5,5.01,0.00,29.1,28.5,00.0,37.9,30.9,11.7,0003.1,0031.27,0011.32,0006.01
2022-04-27 22:07:00,,0820.4,5.00,0.00,29.1,28.3,00.0,38.0,30.8,11.4,0001.1,0032.02,0011.40,0006.01
2022-04-27 22:08:00,,0820.4,5.00,0.00,29.0,26.5,00.0,37.9,30.4,11.5,0000.1,0031.93,0011.48,0006.04
2022-04-27 22:09:00,,0820.4,5.00,0.00,28.9,25.7,00.0,37.9,30.3,11.6,0000.5,0032.44,0011.67,0006.07
2022-04-27 22:10:00,,0820.3,5.00,0.00,28.9,26.1,00.0,37.9,30.4,11.7,0001.8,0033.26,0011.80,0006.10
2022-04-27 22:11:00,,0820.3,4.99,0.00,28.8,26.4,00.0,37.9,30.5,11.5,0001.9,0035.52,0011.85,0006.11
2022-04-27 22:12:00,,0820.3,5.01,0.00,28.8,26.8,00.0,37.9,30.5,12.4,0002.8,0038.03,0011.85,0006.12
2022-04-27 22:13:00,,0820.3,4.98,0.00,28.8,27.1,00.0,37.8,30.6,12.9,0002.4,0037.70,0011.78,0006.08
2022-04-27 22:14:00,,0820.2,5.01,0.00,28.8,27.3,00.0,37.8,30.6,13.1,0000.8,0037.82,0011.79,0006.07
2022-04-27 22:15:00,,0820.2,4.99,0.00,28.8,27.5,00.0,37.8,30.6,12.9,0000.0,0038.48,0011.85,0006.05
2022-04-27 22:16:00,,0820.1,4.99,0.00,28.8,27.6,00.0,37.8,30.6,13.0,0000.1,0039.08,0011.75,0006.02
2022-04-27 22:17:00,,0820.1,4.99,0.00,28.8,27.7,00.0,37.8,30.6,13.2,0000.7,0039.55,0011.84,0005.99
2022-04-27 22:18:00,,0820.1,5.02,0.00,28.8,27.8,00.0,37.8,30.6,13.4,0001.8,0039.50,0011.74,0005.95
2022-04-27 22:19:00,,0820.2,4.99,0.00,28.8,27.8,00.0,37.8,30.6,13.5,0002.0,0040.29,0011.71,0005.90
2022-04-27 22:20:00,,0820.1,5.01,0.00,28.8,27.9,00.0,37.8,30.6,13.5,0001.9,0040.43,0011.54,0005.85
2022-04-27 22:21:00,,0820.1,5.00,0.00,28.8,28.0,00.0,37.8,30.6,13.7,0001.6,0039.63,0011.38,0005.79
2022-04-27 22:22:00,,0820.0,4.99,0.00,28.8,28.0,00.0,37.8,30.6,13.9,0001.5,0037.45,0011.23,0005.72
2022-04-27 22:23:00,,0820.0,5.02,0.00,28.8,27.9,00.0,37.8,30.6,13.7,0001.4,0034.37,0011.02,0005.64
2022-04-27 22:24:00,,0820.0,4.98,0.00,28.8,27.9,00.0,37.8,30.5,13.8,0001.2,0033.74,0011.03,0005.61
2022-04-27 22:25:00,,0820.0,5.01,0.00,28.8,27.9,00.0,37.8,30.5,13.8,0002.2,0032.72,0011.04,0005.60
2022-04-27 22:26:00,,0820.0,4.99,0.00,28.8,27.9,00.0,37.8,30.5,13.8,0001.8,0032.71,0010.97,0005.59
2022-04-27 22:27:00,,0820.0,4.98,0.00,28.8,27.9,00.0,37.8,30.5,13.8,0000.0,0031.45,0010.92,0005.58
2022-04-27 22:28:00,,0820.1,5.01,0.00,28.8,27.9,00.0,37.8,30.5,13.7,0000.0,0030.81,0010.78,0005.54
2022-04-27 22:29:00,,0820.0,4.99,0.00,28.8,27.9,00.0,37.8,30.5,13.6,0000.0,0030.02,0010.62,0005.50
2022-04-27 22:30:00,,0820.0,5.00,0.00,28.8,27.9,00.0,37.8,30.5,13.7,0000.0,0029.56,0010.60,0005.50
2022-04-27 22:31:00,,0820.0,5.01,0.00,28.7,28.0,00.0,37.8,30.5,13.8,0001.1,0028.73,0010.47,0005.48
2022-04-27 22:32:00,,0819.9,4.99,0.00,28.7,28.0,00.0,37.8,30.5,13.8,0002.3,0028.39,0010.42,0005.46
2022-04-27 22:33:00,,0820.0,4.99,0.00,28.7,28.0,00.0,37.8,30.5,13.9,0002.4,0028.23,0010.39,0005.45
2022-04-27 22:34:00,,0820.0,5.00,0.00,28.7,28.0,00.0,37.8,30.5,14.2,0002.0,0029.75,0010.50,0005.45
2022-04-27 22:35:00,,0820.0,5.01,0.00,28.7,28.0,00.0,37.8,30.5,14.1,0002.7,0029.55,0010.50,0005.48
2022-04-27 22:36:00,,0819.9,4.99,0.00,28.7,28.1,00.0,37.8,30.5,13.9,0003.4,0029.91,0010.36,0005.46
2022-04-27 22:37:00,,0820.0,5.01,0.00,28.7,28.1,00.0,37.8,30.4,13.9,0002.6,0030.90,0010.44,0005.46
2022-04-27 22:38:00,,0820.0,5.01,0.00,28.7,28.1,00.0,37.7,30.4,13.8,0001.7,0031.49,0010.40,0005.47
2022-04-27 22:39:00,,0820.0,5.00,0.00,28.7,28.1,00.0,37.7,30.4,13.8,0001.8,0032.40,0010.55,0005.48
2022-04-27 22:40:00,,0820.0,5.01,0.00,28.7,28.1,00.0,37.7,30.4,13.8,0001.9,0033.21,0010.67,0005.51
2022-04-27 22:41:00,,0820.0,5.01,0.00,28.7,28.0,00.0,37.7,30.4,13.8,0001.9,0033.27,0010.78,0005.48
2022-04-27 22:42:00,,0820.1,5.00,0.00,28.7,28.0,00.0,37.7,30.4,14.0,0000.7,0033.21,0010.79,0005.47
2022-04-27 22:43:00,,0820.1,5.01,0.00,28.7,28.0,00.0,37.7,30.4,14.1,0001.7,0034.24,0010.78,0005.46
2022-04-27 22:44:00,,0820.1,4.98,0.00,28.7,28.0,00.0,37.7,30.4,14.2,0004.0,0034.67,0010.81,0005.47
2022-04-27 22:45:00,,0820.1,5.01,0.00,28.7,28.1,00.0,37.7,30.4,14.3,0005.5,0033.52,0010.80,0005.47
2022-04-27 22:46:00,,0820.1,5.00,0.00,28.7,28.1,00.0,37.7,30.5,14.4,0002.9,0033.30,0010.80,0005.43
2022-04-27 22:47:00,,0820.1,4.99,0.00,28.7,28.1,00.0,37.7,30.5,14.4,0001.7,0033.07,0010.82,0005.42
2022-04-27 22:48:00,,0820.0,5.02,0.00,28.7,28.2,00.0,37.7,30.5,14.3,0003.6,0031.14,0010.59,0005.38
2022-04-27 22:49:00,,0820.2,4.99,0.00,28.8,28.3,00.0,37.7,30.5,14.3,0005.4,0031.04,0010.56,0005.36
2022-04-27 22:50:00,,0820.1,5.00,0.00,28.8,28.3,00.0,37.7,30.5,14.4,0003.9,0030.09,0010.42,0005.34
2022-04-27 22:51:00,,0820.1,5.01,0.00,28.8,28.3,00.0,37.7,30.5,14.6,0002.8,0030.52,0010.45,0005.34
2022-04-27 22:52:00,,0820.1,4.99,0.00,28.8,28.3,00.0,37.7,30.5,14.3,0002.2,0032.11,0010.40,0005.35
2022-04-27 22:53:00,,0820.1,5.00,0.00,28.8,28.3,00.0,37.7,30.6,14.4,0002.2,0031.93,0010.36,0005.37
2022-04-27 22:54:00,,0820.1,5.00,0.00,28.8,28.3,00.0,37.8,30.6,14.5,0001.2,0030.51,0010.39,0005.36
2022-04-27 22:55:00,,0820.1,4.99,0.00,28.8,28.3,00.0,37.8,30.6,14.6,-000.2,0030.28,0010.30,0005.35
2022-04-27 22:56:00,,0820.1,5.00,0.00,28.8,28.3,00.0,37.8,30.6,14.4,-000.7,0031.11,0010.21,0005.35
2022-04-27 22:57:00,,0820.1,5.00,0.00,28.8,28.2,00.0,37.8,30.5,14.2,-000.7,0031.11,0010.07,0005.34
2022-04-27 22:58:00,,0820.1,4.99,0.00,28.8,28.2,00.0,37.8,30.5,14.4,-000.3,0030.61,0010.03,0005.34
2022-04-27 22:59:00,,0820.1,5.02,0.00,28.8,28.2,00.0,37.8,30.5,14.4,-001.1,0029.84,0010.05,0005.34
